This is the latest recevied weather packets stored in our database for station/object JS2QVS-13. If no packets are shown the sender has not sent any weather packets the latest 1 day(s).
| Time | Temp. | Humidity | Pressure | Rain* | Wind** | Luminosity | Snow |
|---|---|---|---|---|---|---|---|
| 1778108262 | 21.11° C | 69% | 1011.1 hPa | 0 mm | - | - | - |
| 1778104662 | 19.44° C | 77% | 1011.4 hPa | 0 mm | - | - | - |
| 1778104062 | 19.44° C | 79% | 1011.4 hPa | 0 mm | - | - | - |
| 1778103462 | 18.89° C | 79% | 1011.6 hPa | 0 mm | - | - | - |
| 1778100463 | 18.33° C | 81% | 1011.4 hPa | 0 mm | - | - | - |
| 1778099263 | 18.33° C | 83% | 1011.2 hPa | 0 mm | - | - | - |
| 1778098663 | 18.33° C | 82% | 1011.3 hPa | 0 mm | - | - | - |
| 1778094462 | 18.33° C | 82% | 1011.7 hPa | 0 mm | - | - | - |
| 1778091462 | 18.33° C | 84% | 1012.2 hPa | 0 mm | - | - | - |
| 1778090862 | 18.33° C | 84% | 1012.4 hPa | 0 mm | - | - | - |
| 1778087262 | 18.33° C | 85% | 1012.7 hPa | 0 mm | - | - | - |
| 1778086062 | 18.33° C | 85% | 1012.9 hPa | 0 mm | - | - | - |
| 1778085462 | 18.33° C | 85% | 1013 hPa | 0 mm | - | - | - |
| 1778084263 | 18.33° C | 85% | 1013.5 hPa | 0 mm | - | - | - |
| 1778082463 | 18.33° C | 86% | 1013.5 hPa | 0 mm | - | - | - |
| 1778081863 | 18.89° C | 86% | 1013.6 hPa | 0 mm | - | - | - |
| 1778081263 | 18.89° C | 85% | 1013.6 hPa | 0 mm | - | - | - |
| 1778077662 | 18.89° C | 83% | 1014.1 hPa | 0 mm | - | - | - |
| 1778076462 | 18.89° C | 83% | 1014.2 hPa | 0 mm | - | - | - |
| 1778072863 | 18.89° C | 83% | 1014.4 hPa | 0 mm | - | - | - |
| 1778072263 | 18.89° C | 82% | 1014.5 hPa | 0 mm | - | - | - |
| 1778071663 | 18.89° C | 81% | 1014.4 hPa | 0 mm | - | - | - |
| 1778067463 | 18.89° C | 80% | 1014.4 hPa | 0 mm | - | - | - |
| 1778066863 | 18.89° C | 81% | 1014.5 hPa | 0 mm | - | - | - |
| 1778066263 | 18.89° C | 82% | 1014.6 hPa | 0 mm | - | - | - |
* Rain latest hour (hover to see other rain measurements)
** Current wind speed in m/s (hover to see current wind gust speed)